Temp
8 8 9 9 10 10 11 11 11 11 11 11 11 12 12 13 13 13 14 14 15 15 15 15 15 15 16 16 17 17 19 20 21 21 21 21 22 21 22 22 22 22 22 22 22
8 8 8 9 9 10 11 11 11 11 11 11 12 12 13 13 14 14 14 14 14 13 14 14 14 15 15 16 17 19 19 20 20 21 21 21 21 21 21 22 22 22 22 21 22
8 8 9 9 9 10 11 11 12 12 12 12 12 12 13 13 14 14 14 14 14 14 14 14 14 14 16 15 17 18 19 19 20 20 20 21 20 20 21 21 22 21 21 22 22
7 8 8 9 10 10 11 12 12 12 12 12 12 12 13 13 15 14 14 14 14 14 14 14 14 14 16 17 16 17 17 18 19 19 19 20 19 19 20 21 20 20 21 21 22
8 8 8 9 10 10 11 12 12 12 12 12 12 12 13 13 14 14 14 14 15 14 14 14 14 14 16 16 16 16 17 17 18 18 18 18 19 19 20 20 20 20 21 21 21
8 8 8 9 10 11 11 12 12 12 12 12 12 12 12 13 15 15 15 15 15 15 15 14 14 14 15 16 16 15 16 17 17 18 18 18 19 19 20 20 20 20 20 20 21
8 8 9 10 10 11 11 12 12 12 12 12 12 12 12 14 15 15 15 15 15 15 15 15 15 14 14 16 14 15 16 17 17 18 19 19 18 19 18 19 20 20 20 20 20
8 9 9 10 11 11 12 12 12 12 11 11 11 11 13 15 15 15 15 15 15 15 15 15 15 14 14 14 14 15 15 16 17 17 17 18 18 19 17 18 19 18 19 19 19
8 9 10 11 11 11 12 12 12 12 11 11 11 11 13 14 15 15 15 15 15 15 15 15 14 14 14 15 15 14 16 15 16 16 17 17 17 17 16 16 17 18 18 18 18
9 9 10 11 11 11 12 12 11 11 11 10 10 11 14 14 14 15 15 15 15 15 14 14 13 15 14 15 15 15 15 15 15 16 16 17 16 17 16 16 16 17 18 17 18
9 10 10 11 11 12 12 12 11 11 11 12 12 12 13 14 15 15 15 15 15 15 15 13 15 15 15 14 15 14 14 14 15 16 15 16 16 17 16 16 16 16 17 17 17
9 10 11 11 11 11 12 11 10 10 10 12 12 12 14 14 13 15 15 15 15 15 14 14 15 15 15 14 14 14 14 15 15 15 15 16 15 16 17 17 16 16 16 17 17
10 10 11 12 11 11 11 11 11 11 10 12 13 13 14 14 14 15 15 15 15 14 14 14 15 14 14 15 14 14 14 14 14 14 15 14 16 16 16 16 16 16 15 15 16
11 11 12 12 11 11 11 11 11 11 13 14 15 15 15 14 15 15 15 15 15 15 14 14 14 15 14 14 15 14 14 14 13 13 13 14 14 16 16 15 16 16 16 15 15
11 12 12 12 11 11 11 11 11 11 13 15 15 15 15 15 15 16 15 15 16 15 14 15 15 14 14 14 14 14 13 13 13 13 12 14 12 15 14 15 16 16 15 15 14
11 12 11 11 11 10 11 11 11 13 13 14 15 14 15 14 14 14 14 14 14 14 14 15 13 14 14 13 13 13 13 13 11 12 12 13 12 14 15 16 15 16 15 15 14
12 12 11 11 10 10 11 11 12 12 14 13 14 14 13 13 14 13 13 14 14 13 14 14 14 13 13 13 12 13 12 12 12 12 13 12 12 14 15 15 15 15 15 14 13
12 11 11 11 10 10 11 12 12 12 13 14 14 13 13 13 13 13 13 13 12 13 13 13 13 13 13 13 13 12 12 12 11 12 13 12 12 14 14 14 14 14 13 13 13
12 11 11 10 10 11 11 11 12 12 13 12 13 12 12 13 12 12 12 13 13 13 13 12 11 12 13 13 13 11 11 11 11 11 10 13 13 14 15 15 14 14 13 13 12
12 11 11 11 11 11 11 10 11 12 12 12 11 12 12 12 12 12 12 12 12 12 12 12 11 12 13 12 11 12 12 10 10 9 10 12 12 13 14 14 14 14 13 12 12
11 11 11 11 11 11 10 10 11 11 12 12 12 12 12 12 12 11 12 12 12 12 11 11 10 11 11 11 12 11 11 10 10 10 10 10 13 13 14 14 13 13 12 12 11
10 11 10 11 10 5 9 9 9 11 11 12 11 12 11 11 11 11 11 12 11 12 11 11 10 10 11 13 12 11 11 11 9 9 9 10 11 14 14 14 12 13 12 11 10
9 9 10 11 9 9 8 9 9 10 11 11 11 11 10 10 10 10 11 11 11 11 11 10 9 9 10 9 9 9 10 11 10 9 9 9 12 13 14 14 13 12 11 10 10
8 9 9 9 5 6 6 8 9 9 10 9 10 10 9 9 10 10 10 11 10 10 10 9 10 9 9 10 10 10 10 10 10 8 10 10 11 13 13 13 13 11 10 10 9
8 4 4 8 7 5 4 6 7 8 8 8 9 8 7 7 8 8 9 9 9 9 9 9 8 9 9 10 10 10 10 11 10 10 9 10 11 12 13 13 12 11 10 9 9
6 5 3 4 3 4 5 6 6 7 6 8 7 7 6 6 7 7 7 7 7 8 9 8 8 9 9 9 9 9 10 10 10 11 11 11 10 12 12 12 11 10 10 10 10
5 4 3 4 4 5 6 6 6 5 6 6 6 5 5 7 6 5 5 5 7 7 8 7 7 7 8 9 9 8 10 11 11 12 11 10 12 14 12 12 11 11 10 10 9
Height
1517 1515 1512 1510 1508 1506 1505 1503 1502 1502 1501 1500 1498 1497 1495 1493 1491 1489 1488 1488 1488 1487 1489 1492 1493 1494 1495 1498 1500 1502 1502 1499 1497 1500 1497 1496 1496 1496 1498 1497 1497 1498 1497 1495 1492
1516 1513 1511 1509 1507 1505 1504 1502 1501 1501 1500 1498 1497 1495 1493 1491 1490 1489 1489 1487 1487 1488 1489 1490 1491 1491 1495 1497 1499 1497 1494 1493 1493 1493 1494 1495 1496 1498 1496 1493 1494 1496 1495 1493 1492
1515 1512 1510 1508 1505 1503 1502 1500 1500 1499 1498 1497 1495 1493 1492 1491 1491 1490 1489 1489 1488 1488 1488 1489 1490 1493 1495 1495 1494 1492 1489 1492 1491 1489 1490 1487 1491 1495 1494 1488 1492 1493 1491 1489 1489
1514 1511 1508 1506 1503 1501 1499 1498 1498 1497 1496 1496 1494 1493 1491 1491 1493 1491 1491 1490 1490 1490 1489 1489 1490 1492 1492 1492 1493 1492 1489 1489 1490 1489 1487 1486 1488 1491 1492 1487 1491 1491 1490 1488 1485
1513 1510 1507 1504 1501 1499 1497 1495 1495 1495 1495 1494 1494 1493 1492 1492 1491 1491 1491 1491 1491 1490 1490 1490 1490 1491 1490 1491 1492 1492 1489 1489 1489 1488 1485 1485 1484 1487 1487 1488 1489 1488 1488 1486 1482
1510 1507 1504 1501 1499 1496 1494 1493 1492 1492 1493 1493 1493 1492 1492 1492 1490 1491 1491 1491 1491 1491 1491 1490 1491 1490 1490 1489 1490 1490 1489 1488 1487 1486 1485 1482 1478 1485 1482 1484 1484 1486 1484 1483 1478
1507 1505 1502 1499 1496 1493 1492 1491 1491 1490 1491 1491 1491 1491 1491 1490 1490 1490 1491 1491 1491 1490 1490 1490 1491 1492 1490 1488 1488 1487 1488 1485 1485 1483 1480 1480 1477 1475 1481 1480 1481 1480 1479 1479 1477
1505 1502 1500 1497 1495 1493 1492 1491 1490 1489 1489 1489 1490 1490 1487 1488 1489 1489 1490 1490 1490 1490 1490 1490 1490 1490 1490 1489 1488 1487 1489 1484 1480 1480 1478 1478 1472 1478 1479 1480 1476 1478 1478 1475 1475
1503 1499 1497 1496 1494 1493 1491 1490 1489 1489 1489 1489 1490 1489 1487 1487 1488 1489 1489 1489 1489 1489 1488 1488 1489 1489 1490 1487 1487 1487 1484 1485 1480 1481 1478 1475 1473 1475 1477 1476 1474 1472 1475 1473 1472
1501 1498 1495 1494 1494 1493 1492 1491 1490 1490 1490 1490 1489 1492 1488 1488 1487 1487 1488 1487 1488 1488 1488 1488 1488 1487 1489 1486 1487 1487 1486 1484 1481 1479 1475 1474 1475 1473 1474 1475 1473 1470 1470 1470 1469
1498 1496 1495 1493 1493 1493 1492 1491 1493 1493 1489 1489 1489 1488 1487 1487 1486 1487 1487 1487 1487 1487 1485 1487 1484 1484 1483 1486 1485 1486 1486 1484 1479 1477 1477 1471 1471 1470 1469 1468 1467 1468 1467 1463 1464
1496 1495 1494 1494 1494 1493 1493 1492 1493 1494 1490 1486 1486 1486 1485 1486 1487 1485 1486 1487 1486 1486 1487 1487 1484 1482 1484 1485 1485 1485 1484 1481 1478 1477 1477 1469 1465 1461 1458 1458 1459 1460 1460 1461 1461
1495 1493 1491 1493 1494 1494 1494 1494 1493 1491 1491 1485 1484 1484 1485 1486 1485 1483 1484 1484 1483 1484 1485 1485 1482 1483 1484 1483 1483 1482 1482 1482 1482 1478 1473 1469 1453 1455 1453 1454 1455 1456 1458 1458 1458
1493 1492 1491 1492 1496 1494 1494 1493 1492 1492 1489 1486 1484 1484 1484 1484 1483 1481 1481 1484 1483 1482 1484 1482 1482 1481 1481 1480 1478 1480 1480 1480 1481 1480 1477 1475 1462 1451 1452 1450 1454 1456 1455 1455 1455
1493 1491 1492 1492 1494 1494 1495 1492 1492 1492 1495 1485 1483 1483 1482 1483 1482 1479 1478 1479 1478 1480 1483 1479 1478 1479 1478 1475 1476 1477 1479 1480 1479 1476 1478 1467 1474 1451 1453 1449 1450 1452 1453 1453 1451
1493 1492 1492 1494 1494 1494 1492 1491 1492 1494 1492 1482 1482 1482 1481 1480 1480 1478 1477 1477 1477 1477 1478 1475 1477 1477 1474 1477 1477 1478 1478 1476 1481 1478 1473 1464 1468 1451 1448 1445 1447 1446 1451 1452 1452
1495 1494 1494 1494 1494 1492 1491 1491 1492 1490 1484 1484 1482 1481 1482 1480 1478 1478 1477 1475 1475 1478 1475 1474 1473 1474 1476 1475 1477 1476 1477 1477 1472 1471 1461 1467 1466 1448 1445 1445 1447 1446 1445 1447 1448
1498 1497 1497 1495 1493 1492 1491 1492 1492 1484 1484 1482 1481 1481 1480 1479 1478 1477 1476 1475 1475 1475 1474 1472 1472 1471 1473 1472 1472 1475 1477 1477 1479 1470 1461 1466 1455 1441 1443 1444 1445 1444 1446 1445 1444
1497 1498 1496 1494 1492 1491 1491 1492 1486 1484 1483 1483 1481 1481 1480 1479 1479 1477 1475 1472 1470 1472 1473 1474 1474 1471 1471 1472 1474 1476 1477 1477 1476 1472 1474 1452 1443 1442 1436 1440 1442 1443 1443 1442 1442
1496 1495 1496 1494 1492 1490 1490 1489 1486 1484 1483 1483 1484 1479 1480 1478 1479 1477 1474 1470 1469 1471 1471 1472 1475 1470 1469 1471 1473 1471 1474 1478 1478 1476 1466 1443 1443 1436 1435 1436 1439 1439 1438 1439 1437
1492 1493 1493 1492 1491 1491 1492 1489 1485 1483 1484 1483 1480 1479 1477 1476 1476 1476 1471 1469 1468 1469 1472 1472 1475 1470 1472 1468 1464 1470 1469 1474 1472 1472 1465 1455 1433 1432 1434 1434 1437 1438 1438 1434 1431
1492 1492 1492 1491 1494 1496 1492 1491 1488 1483 1481 1480 1478 1475 1475 1474 1474 1472 1469 1466 1466 1467 1469 1469 1471 1468 1463 1459 1462 1462 1463 1464 1469 1469 1466 1460 1437 1429 1431 1433 1435 1433 1432 1430 1427
1492 1491 1491 1491 1492 1494 1494 1491 1487 1483 1480 1478 1477 1475 1475 1474 1474 1469 1466 1466 1466 1466 1466 1469 1467 1463 1457 1465 1465 1462 1461 1462 1465 1467 1460 1456 1428 1429 1428 1429 1429 1427 1426 1424 1421
1496 1493 1492 1492 1496 1497 1497 1489 1485 1482 1480 1479 1477 1475 1475 1473 1471 1467 1467 1466 1466 1466 1466 1467 1462 1463 1457 1452 1457 1457 1458 1458 1458 1461 1448 1438 1427 1426 1424 1424 1424 1423 1421 1418 1415
1498 1501 1498 1494 1495 1498 1499 1493 1487 1483 1481 1479 1476 1477 1478 1475 1473 1469 1467 1467 1466 1466 1466 1465 1459 1460 1454 1453 1453 1450 1448 1447 1446 1443 1444 1431 1429 1420 1420 1420 1418 1416 1414 1412 1409
1501 1503 1501 1497 1497 1497 1494 1488 1487 1485 1486 1479 1478 1477 1479 1478 1474 1471 1470 1468 1465 1462 1461 1460 1455 1451 1445 1448 1448 1446 1439 1437 1434 1431 1428 1426 1421 1415 1416 1414 1414 1412 1409 1406 1402
1502 1501 1502 1497 1494 1495 1489 1487 1486 1488 1482 1480 1480 1479 1475 1472 1470 1468 1466 1464 1462 1461 1459 1458 1456 1452 1443 1442 1443 1440 1419 1419 1416 1417 1417 1416 1408 1408 1409 1408 1408 1406 1403 1400 1396
Wind_Speed
16 16 15 14 13 12 11 9 8 8 7 8 10 12 12 13 11 9 7 6 5 8 11 10 7 7 8 8 9 8 7 12 18 16 9 3 2 1 5 11 7 3 9 16 21
15 15 15 15 14 13 11 10 9 8 8 10 11 11 10 9 7 7 6 3 1 1 4 6 6 6 4 6 8 10 10 17 6 9 11 9 8 10 7 14 15 11 12 17 17
17 16 15 15 14 14 12 11 9 9 9 10 11 9 6 7 3 6 5 6 7 5 3 6 5 7 6 4 7 7 12 8 7 13 14 17 11 7 10 17 10 15 23 24 18
18 17 16 14 14 13 13 10 9 8 8 9 9 7 6 3 2 3 5 5 6 6 7 4 5 6 4 7 4 7 6 13 16 14 6 8 8 8 14 24 17 17 22 15 18
18 18 17 15 13 12 12 9 7 7 7 7 8 6 4 2 3 2 2 4 5 5 4 4 4 4 5 3 3 7 3 5 8 10 11 13 18 18 19 21 25 15 15 20 16
20 18 17 15 12 11 9 6 6 5 5 5 6 5 4 2 5 2 1 3 5 5 2 1 1 1 3 3 4 2 3 7 8 11 8 10 20 13 12 7 18 24 20 12 7
19 19 18 15 12 8 5 4 4 4 4 4 4 5 5 7 6 5 3 3 3 5 3 2 1 2 2 2 0 2 6 8 12 14 12 13 17 22 5 7 18 14 10 9 5
18 17 16 14 11 7 4 3 3 3 3 4 3 5 4 8 9 7 5 4 3 3 4 4 5 4 2 0 2 1 2 4 3 2 6 13 14 2 12 1 9 9 7 7 6
18 15 13 11 7 6 4 5 2 1 1 2 2 2 2 6 5 5 3 4 2 4 4 6 2 1 1 1 2 1 3 3 2 5 4 3 5 3 9 11 12 11 7 7 8
18 15 11 6 5 8 3 6 5 3 4 1 2 1 2 2 3 6 6 5 4 3 3 3 2 3 2 3 3 1 2 2 5 2 7 7 8 12 14 11 13 14 15 8 5
18 13 10 3 4 5 6 2 3 2 6 4 4 4 6 2 3 7 4 3 4 1 2 1 4 4 3 4 3 3 4 5 5 2 9 11 13 13 18 16 15 16 17 13 9
18 12 7 2 4 4 6 4 6 5 6 3 8 12 11 9 5 5 8 4 2 2 1 3 7 5 2 2 4 5 5 6 7 5 8 14 19 17 14 15 18 17 13 12 11
18 11 3 5 3 4 5 7 7 7 2 4 2 2 1 6 4 4 8 5 4 3 4 4 1 5 3 2 4 6 8 4 5 7 9 12 13 3 4 9 7 3 7 8 14
14 9 0 7 5 3 1 6 7 5 2 1 2 1 1 2 4 4 10 6 2 3 4 5 2 5 6 7 7 7 5 3 4 6 8 6 9 12 9 2 4 2 6 7 13
11 6 3 8 5 1 7 9 4 1 2 2 2 2 4 4 5 1 5 8 11 7 4 2 3 4 7 4 5 2 2 2 5 11 10 13 7 3 3 6 5 6 3 9 10
9 5 6 6 2 8 9 2 2 2 4 3 1 3 3 1 2 6 2 4 2 5 6 12 2 3 2 3 2 3 2 7 1 3 6 3 5 4 4 5 7 11 8 13 6
8 6 5 3 4 9 5 3 2 3 2 1 0 2 2 2 2 3 3 2 5 5 9 4 4 1 2 4 2 2 4 4 3 4 3 5 8 11 7 7 11 13 16 16 12
6 4 3 5 7 8 2 1 5 1 2 1 1 5 4 1 1 4 2 3 3 2 4 7 9 6 5 4 1 3 3 4 5 4 5 5 9 2 5 8 14 11 8 12 14
3 3 4 7 7 7 1 2 3 3 1 3 5 3 2 3 3 3 4 5 5 5 5 4 5 1 5 2 2 3 6 2 6 8 7 6 8 10 10 4 3 1 7 15 19
5 6 6 7 10 4 1 3 3 2 2 2 4 5 4 3 3 3 3 2 3 5 1 1 6 5 4 0 4 8 7 3 3 4 6 6 13 9 10 9 3 10 12 17 23
2 2 2 8 10 1 1 3 4 5 2 5 4 5 6 7 7 4 4 3 4 6 3 3 5 5 3 8 10 6 8 5 3 4 4 6 5 3 5 9 9 8 15 24 26
3 0 3 7 2 2 1 2 5 5 2 4 4 7 7 5 5 8 9 8 6 8 5 6 3 10 16 10 6 8 10 13 7 6 5 6 9 10 13 7 9 20 28 21 18
7 3 4 7 1 2 5 4 5 3 2 2 3 3 1 4 4 7 8 4 5 7 6 6 5 7 6 4 3 5 10 12 7 6 15 12 10 6 10 16 27 24 23 16 18
6 2 4 7 5 2 4 5 4 4 3 3 4 1 2 4 6 5 4 2 3 2 2 6 10 12 13 11 1 5 9 12 13 10 16 18 27 25 26 23 20 23 16 15 17
7 2 2 3 2 3 2 4 6 5 3 4 1 5 3 4 6 9 10 7 4 6 10 4 16 15 18 20 19 22 21 20 21 21 21 23 25 28 23 21 23 20 18 17 20
4 3 4 3 3 3 2 3 3 4 2 4 6 5 5 7 10 19 18 15 15 6 8 4 11 13 21 14 15 18 22 23 26 26 27 27 29 27 28 17 14 17 16 19 19
7 3 1 3 2 2 2 3 2 3 7 13 6 8 13 16 12 17 22 23 17 12 12 9 6 5 13 8 9 13 25 26 26 20 17 19 22 13 11 14 16 19 19 21 21
Wind_Direction
2 356 351 348 344 338 334 332 332 335 336 333 329 325 322 323 324 326 322 277 263 256 240 233 231 219 214 202 182 177 233 239 234 240 253 229 302 231 267 286 294 294 308 324 346
360 357 351 347 343 337 330 324 325 326 329 333 334 331 331 340 0 21 22 63 85 217 240 227 209 189 180 193 191 200 229 235 222 235 237 253 274 290 293 285 292 286 304 323 342
357 352 349 344 341 335 328 321 316 315 321 332 338 336 337 349 42 29 60 75 68 43 256 216 186 168 189 182 193 201 236 228 236 223 243 238 264 275 277 282 292 307 313 321 327
353 350 345 341 337 334 327 317 305 301 310 326 338 337 331 5 93 75 67 57 49 45 63 113 159 155 180 205 208 237 234 239 248 262 258 245 255 249 256 266 288 297 303 313 331
347 347 344 339 335 331 324 311 300 290 295 319 333 332 321 334 134 143 30 12 17 35 47 95 146 154 184 197 227 237 234 260 252 269 270 278 254 255 269 272 282 286 299 306 317
342 342 343 340 334 332 326 312 295 273 272 303 325 321 294 267 161 180 288 346 340 351 12 81 118 210 155 203 224 186 251 268 279 261 247 249 264 270 254 288 290 288 297 306 298
339 339 342 340 338 339 331 312 299 276 255 273 315 310 260 207 181 212 268 300 326 356 292 301 325 287 245 229 273 296 270 263 247 248 242 232 256 253 253 293 286 294 288 285 309
339 339 343 345 347 355 357 347 316 292 270 275 295 306 243 182 196 231 271 265 241 319 311 265 281 269 236 68 30 251 237 248 135 255 242 212 241 36 25 2 261 313 306 327 335
341 341 347 354 7 14 19 13 11 85 254 253 279 294 254 198 222 218 263 278 250 289 249 222 197 173 138 298 223 109 222 233 204 54 1 225 273 12 344 331 307 312 301 311 314
344 341 348 16 61 34 35 34 75 82 31 346 267 274 181 214 230 229 287 257 261 270 141 159 147 193 140 234 236 211 260 264 278 9 334 299 278 305 304 287 278 295 293 282 288
344 344 345 42 99 57 31 338 349 324 310 246 288 280 286 265 280 245 248 270 232 99 221 71 208 204 182 214 252 243 238 251 279 273 323 300 296 290 280 269 251 252 265 270 273
340 343 342 115 111 80 62 68 22 312 316 290 262 262 259 271 300 250 238 207 178 270 179 217 235 208 191 205 209 213 233 249 273 286 312 306 301 293 276 256 250 243 226 257 267
340 341 336 167 143 132 74 40 2 338 271 295 278 265 229 241 244 249 189 193 214 225 207 235 113 157 212 228 231 223 233 230 282 318 292 316 294 251 221 287 220 242 276 276 298
349 347 66 152 142 141 26 345 339 328 330 135 212 172 257 218 261 269 226 207 192 263 188 252 134 195 202 257 213 253 188 221 264 302 306 350 288 290 280 244 223 268 313 315 317
2 19 125 147 130 59 322 316 317 278 227 137 132 104 297 222 325 35 250 212 231 202 208 240 232 245 264 239 190 140 212 240 279 288 303 266 254 284 219 235 185 347 308 329 328
12 56 113 135 71 346 325 312 139 221 229 166 74 352 342 14 320 311 278 222 165 215 236 268 274 253 265 104 120 123 179 291 248 254 251 223 242 197 215 219 230 301 295 323 330
48 83 96 72 352 346 347 154 220 228 42 167 228 344 291 300 284 6 332 232 229 219 234 228 217 192 198 184 133 148 342 306 258 206 273 137 289 254 226 226 264 304 309 319 319
61 65 23 347 336 342 6 179 237 168 237 310 299 309 228 2 246 328 243 228 190 206 241 250 245 192 175 240 260 288 234 261 280 258 297 231 249 216 195 264 285 287 322 342 346
286 325 333 330 331 334 125 213 266 210 323 309 302 242 220 207 301 300 245 244 219 191 231 214 247 282 220 192 231 138 214 345 258 254 271 241 259 262 259 229 295 339 350 349 341
289 266 297 331 332 327 125 250 246 236 357 259 231 218 231 237 273 239 263 205 204 202 217 205 273 241 275 222 189 227 145 198 194 250 256 259 278 257 284 298 304 322 321 326 331
307 256 296 331 333 340 245 257 280 267 317 227 245 250 234 274 237 234 247 240 217 198 187 173 237 248 235 216 246 197 216 205 252 227 264 296 264 271 269 299 302 313 325 323 323
26 275 320 344 348 18 264 311 314 277 285 275 251 250 249 228 239 240 241 232 178 172 216 211 230 258 268 268 254 236 238 215 229 216 235 275 271 284 277 296 311 309 314 314 307
356 326 351 351 40 341 318 286 270 278 277 301 277 245 239 235 254 240 245 264 232 197 202 180 218 265 257 166 134 209 209 226 246 263 250 255 249 205 271 285 306 309 312 305 306
359 1 19 52 69 35 332 280 288 303 265 325 285 349 318 254 240 275 244 282 5 278 234 180 255 246 257 276 280 226 207 217 242 251 262 245 270 279 285 291 301 298 293 306 318
25 37 18 321 48 334 257 289 288 291 347 321 221 63 10 282 283 260 274 281 268 281 283 258 256 254 258 264 267 267 267 263 255 257 253 269 271 275 283 292 293 290 293 293 318
42 3 328 280 284 287 224 238 276 297 291 280 268 311 311 269 268 286 286 275 265 255 246 221 264 264 261 265 257 265 264 261 261 260 259 262 266 272 280 279 272 280 286 291 305
11 334 292 256 214 244 233 250 260 340 285 257 286 323 308 298 296 283 277 266 255 249 256 267 269 272 264 281 280 272 257 249 253 253 251 253 257 277 282 285 300 300 290 290 298